Home   Weather   Erkrath   Past weeks

Flag for Germany Past Weather in Erkrath, North Rhine-Westphalia, Germany — Yesterday and Last 2 Weeks

Now
34 °F

Fog.


Feels Like: 34 °F
Forecast: 29 / 41 °F
Wind: 2 mph from North

Location: Duesseldorf

Current Time: Dec 2, 2016 at 8:51:21 pm

Latest Report: Dec 2, 2016 at 8:20 pm


Visibility: N/A

Pressure: 30.24 "Hg

Humidity: 100%

Dew Point: 34 °F

Location of ErkrathLocation

Past Weather in Erkrath — Graph

°F

Erkrath Temperature Yesterday

Maximum temperature yesterday: 45 °F (at 9:50 pm)
Minimum temperature yesterday: 37 °F (at 12:20 am)
Average temperature yesterday: 41 °F

High & Low Weather Summary for the Past Weeks

 TemperatureHumidityPressure
High59 °F (Nov 20, 1:50 pm)100% (Nov 18, 5:20 am)30.60 "Hg (Nov 18, 5:20 am)
Low21 °F (Nov 29, 2:20 am)45% (Nov 29, 2:50 pm)29.30 "Hg (Nov 18, 4:20 am)
Average43 °F82%30.02 "Hg
* Reported Nov 17 7:20 pm — Dec 2 7:20 pm, Erkrath, Weather by CustomWeather, © 2016

Note: Actual official high and low records may vary slightly from our data, if they occured in-between our weather recording intervals... More about our weather records

Advertising

Erkrath Weather History for the Previous 24 Hours

Scroll right to see more
 ConditionsComfort  
Time TempWeatherWind HumidityBarometerVisibility
7:20 pm
Fri, Dec 2
36 °FFog.2 mph100%30.24 "HgN/A
6:50 pm37 °FFog.2 mph100%30.21 "HgN/A
6:20 pm37 °FFog.2 mph100%30.21 "HgN/A
5:50 pm39 °FFog.2 mph100%30.21 "HgN/A
5:20 pm41 °FFog.2 mph93%30.21 "HgN/A
4:50 pm43 °FFog.5 mph93%30.21 "HgN/A
4:20 pm45 °FScattered clouds.3 mph87%30.21 "HgN/A
3:50 pm46 °FPartly sunny.2 mph82%30.21 "HgN/A
3:20 pm46 °FScattered clouds.6 mph82%30.21 "HgN/A
2:50 pm46 °FPartly sunny.6 mph82%30.21 "HgN/A
2:20 pm46 °FPartly sunny.5 mph87%30.21 "HgN/A
1:50 pm46 °FPartly sunny.5 mph87%30.21 "HgN/A
1:20 pm46 °FPartly sunny.5 mph93%30.21 "HgN/A
12:50 pm46 °FPartly sunny.5 mph93%30.21 "HgN/A
12:20 pm46 °FDrizzle. Broken clouds.6 mph93%30.21 "HgN/A
11:50 am46 °FDrizzle. Partly sunny.7 mph100%30.21 "Hg4 mi
11:20 am46 °FDrizzle. Partly sunny.8 mph100%30.21 "Hg4 mi
10:50 am46 °FDrizzle. Partly sunny.8 mph93%30.21 "Hg5 mi
10:20 am46 °FDrizzle. Partly sunny.9 mph93%30.21 "Hg5 mi
9:50 am45 °FDrizzle. Partly sunny.9 mph100%30.18 "Hg5 mi
9:20 am45 °FDrizzle. Partly sunny.9 mph100%30.18 "Hg4 mi
8:50 am45 °FPartly sunny.7 mph100%30.18 "Hg6 mi
8:20 am45 °FDrizzle. Partly sunny.7 mph100%30.18 "Hg3 mi
7:50 am45 °FPartly cloudy.8 mph93%30.18 "HgN/A
7:20 am45 °FPartly cloudy.8 mph93%30.18 "HgN/A
6:50 am45 °FPassing clouds.7 mph100%30.18 "Hg5 mi
6:20 am45 °FPassing clouds.7 mph93%30.18 "HgN/A
5:50 am45 °FPartly cloudy.9 mph93%30.18 "HgN/A
5:20 am45 °FPartly cloudy.8 mph100%30.18 "Hg6 mi
4:50 am45 °FLight rain. Partly cloudy.10 mph100%30.18 "Hg6 mi
4:20 am46 °FLight rain. Partly cloudy.9 mph93%30.18 "Hg6 mi
3:50 am46 °FLight rain. Partly cloudy.8 mph93%30.18 "Hg6 mi
3:20 am46 °FPartly cloudy.10 mph93%30.18 "Hg5 mi
2:50 am46 °FPartly cloudy.12 mph93%30.18 "Hg4 mi
2:20 am46 °FPassing clouds.13 mph93%30.18 "Hg4 mi
1:50 am46 °FFog.10 mph93%30.18 "Hg2 mi
1:20 am45 °FFog.8 mph100%30.18 "Hg2 mi
12:50 am45 °FFog.9 mph100%30.18 "Hg2 mi
12:20 am45 °FFog.9 mph93%30.21 "Hg2 mi
11:50 pm
Thu, Dec 1
45 °FFog.10 mph93%30.21 "Hg2 mi
11:20 pm45 °FDrizzle. Fog.13 mph93%30.21 "Hg2 mi
10:50 pm45 °FDrizzle. Fog.13 mph93%30.21 "Hg2 mi
10:20 pm45 °FFog.9 mph93%30.21 "Hg3 mi
9:50 pm45 °FFog.10 mph93%30.21 "Hg3 mi
9:20 pm43 °FFog.10 mph100%30.21 "Hg3 mi
8:50 pm43 °FFog.13 mph100%30.21 "Hg3 mi
8:20 pm43 °FFog.10 mph93%30.24 "Hg3 mi
Weather by CustomWeather, © 2016

See weather overviewHow to use our weather pages